FW1436 Weather Reports


time (UTC)temp
C
wind
direction
speed
KPH
gust
KPH
rain 1hr
cm
rain 24hr
cm
rain mn
cm
humidity
%
barometer
mb
20260906074528 23 103 0.0 0.0 0.00 0.00 0.00 46 1017.7
20260906073025 23 103 0.0 1.6 0.00 0.00 0.00 46 1017.6
20260906071520 23 103 0.0 0.0 0.00 0.00 0.00 48 1017.4
20260906070019 22 103 0.0 1.6 0.00 0.00 0.00 51 1017.5
20260906064516 -17 0.0 0.0 0.00 0.00 0.00 1017.4
20260906063015 -17 0.0 0.0 0.00 0.00 0.00 1017.3
20260906061508 -17 0.0 0.0 0.00 0.00 0.00 1017.3
20260906060004 -17 0.0 0.0 0.00 0.00 0.00 1017.0
20260906054610 -17 0.0 0.0 0.00 0.00 0.00 1016.9
20260906053056 -17 0.0 0.0 0.00 0.00 0.00 1016.9
20260906051603 -17 0.0 0.0 0.00 0.00 0.00 1016.7
20260906050051 -17 0.0 0.0 0.00 0.00 0.00 1016.7
20260906044544 -17 115 0.0 1.6 0.00 0.00 0.00 1016.8
20260906043041 24 75 0.0 1.6 0.00 0.00 0.00 44 1016.5
20260906041539 25 73 0.0 3.2 0.00 0.00 0.00 43 1016.5
20260906040038 25 72 1.6 6.4 0.00 0.00 0.00 42 1016.4
20260906034537 25 314 1.6 6.4 0.00 0.00 0.00 43 1016.8
20260906033045 25 100 4.8 9.7 0.00 0.00 0.00 43 1016.5
20260906031539 25 18 0.0 3.2 0.00 0.00 0.00 43 1016.9
20260906030033 25 54 0.0 0.0 0.00 0.00 0.00 43 1017.0
20260906024542 25 68 0.0 6.4 0.00 0.00 0.00 43 1016.7
20260906023029 25 99 1.6 4.8 0.00 0.00 0.00 42 1016.7
20260906021528 25 98 0.0 3.2 0.00 0.00 0.00 42 1016.6
20260906020026 25 119 0.0 3.2 0.00 0.00 0.00 42 1016.6
20260906014538 25 103 1.6 4.8 0.00 0.00 0.00 42 1016.7
20260906013038 25 63 0.0 3.2 0.00 0.00 0.00 41 1016.9
20260906011523 25 127 0.0 3.2 0.00 0.00 0.00 41 1016.9
20260906010027 25 86 0.0 3.2 0.00 0.00 0.00 42 1017.0
20260906004521 25 105 0.0 1.6 0.00 0.00 0.00 41 1017.0
20260906003018 26 78 1.6 3.2 0.00 0.00 0.00 41 1017.0
20260906001521 26 110 0.0 6.4 0.00 0.00 0.00 40 1017.2
20260906000014 26 248 0.0 3.2 0.00 0.00 0.00 39 1017.2
20260905234513 26 84 4.8 11.3 0.00 0.00 0.00 39 1016.9
20260905233012 26 242 0.0 3.2 0.00 0.00 0.00 39 1016.7
20260905231511 26 91 0.0 6.4 0.00 0.00 0.00 40 1016.8
20260905230006 26 63 0.0 3.2 0.00 0.00 0.00 38 1016.9
20260905224506 26 50 0.0 4.8 0.00 0.00 0.00 38 1016.9
20260905223003 27 117 0.0 4.8 0.00 0.00 0.00 38 1017.0
20260905221501 27 122 0.0 1.6 0.00 0.00 0.00 38 1016.9
20260905220057 27 90 0.0 3.2 0.00 0.00 0.00 38 1016.9
20260905214601 27 105 1.6 4.8 0.00 0.00 0.00 38 1016.8
20260905213104 27 109 3.2 6.4 0.00 0.00 0.00 38 1017.0
20260905211600 27 81 0.0 1.6 0.00 0.00 0.00 39 1017.0
20260905210058 27 81 0.0 1.6 0.00 0.00 0.00 38 1017.0
20260905204554 27 279 0.0 1.6 0.00 0.00 0.00 38 1016.9
20260905203055 27 275 0.0 4.8 0.00 0.00 0.00 37 1016.8
20260905201609 28 297 0.0 6.4 0.00 0.00 0.00 37 1016.8
20260905200049 28 233 1.6 3.2 0.00 0.00 0.00 36 1016.6
20260905194549 28 59 1.6 6.4 0.00 0.00 0.00 35 1016.3
20260905193059 28 280 4.8 14.5 0.00 0.00 0.00 35 1015.8
20260905191546 29 240 4.8 16.1 0.00 0.00 0.00 34 1015.6
20260905190145 29 269 4.8 14.5 0.00 0.00 0.00 34 1015.5
20260905184549 29 241 1.6 11.3 0.00 0.00 0.00 34 1015.3
20260905183044 30 264 1.6 8.0 0.00 0.00 0.00 34 1015.4
20260905181559 30 296 4.8 17.7 0.00 0.00 0.00 33 1015.3
20260905180043 31 252 6.4 14.5 0.00 0.00 0.00 31 1015.3
20260905174541 31 259 1.6 16.1 0.00 0.00 0.00 31 1015.1
20260905173043 31 217 3.2 11.3 0.00 0.00 0.00 30 1015.1
20260905171541 32 256 0.0 6.4 0.00 0.00 0.00 31 1015.0
20260905170040 32 288 4.8 9.7 0.00 0.00 0.00 30 1015.1
20260905164538 32 136 4.8 12.9 0.00 0.00 0.00 29 1015.1
20260905163039 32 246 1.6 9.7 0.00 0.00 0.00 29 1015.0
20260905161551 33 233 1.6 11.3 0.00 0.00 0.00 27 1015.0
20260905160038 33 287 3.2 9.7 0.00 0.00 0.00 27 1015.0
20260905154540 33 242 1.6 11.3 0.00 0.00 0.00 27 1015.1
20260905153037 33 308 4.8 9.7 0.00 0.00 0.00 27 1015.1
20260905151535 33 354 4.8 11.3 0.00 0.00 0.00 26 1015.0
20260905150036 33 322 3.2 11.3 0.00 0.00 0.00 27 1014.9
20260905144534 33 302 4.8 16.1 0.00 0.00 0.00 26 1014.9
20260905143036 33 339 4.8 19.3 0.00 0.00 0.00 27 1015.0
20260905141535 33 281 4.8 12.9 0.00 0.00 0.00 28 1015.3
20260905140029 33 296 8.0 16.1 0.00 0.00 0.00 28 1015.6
20260905134527 33 324 4.8 11.3 0.00 0.00 0.00 28 1015.7
20260905133026 33 300 3.2 11.3 0.00 0.00 0.00 27 1015.8
20260905131525 33 294 6.4 11.3 0.00 0.00 0.00 29 1016.1
20260905130025 33 302 0.0 9.7 0.00 0.00 0.00 30 1016.2
20260905124524 33 267 0.0 11.3 0.00 0.00 0.00 31 1016.1
20260905123023 33 297 1.6 11.3 0.00 0.00 0.00 31 1016.4
20260905121526 32 269 1.6 8.0 0.00 0.00 0.00 31 1016.4
20260905120025 32 256 3.2 8.0 0.00 0.00 0.00 32 1016.5
20260905114520 32 231 1.6 9.7 0.00 0.00 0.00 31 1016.5
20260905113020 32 229 1.6 4.8 0.00 0.00 0.00 32 1016.7
20260905111521 32 191 0.0 4.8 0.00 0.00 0.00 31 1016.8
20260905110020 32 254 1.6 8.0 0.00 0.00 0.00 31 1016.9
20260905104519 33 229 3.2 9.7 0.00 0.00 0.00 31 1016.8
20260905103015 32 229 3.2 9.7 0.00 0.00 0.00 32 1017.1
20260905101513 32 229 4.8 9.7 0.00 0.00 0.00 33 1017.1
20260905100011 31 113 3.2 9.7 0.00 0.00 0.00 35 1017.1
20260905094510 30 79 3.2 12.9 0.00 0.00 0.00 36 1017.0
20260905093007 30 99 1.6 8.0 0.00 0.00 0.00 35 1017.0
20260905091505 30 344 0.0 8.0 0.00 0.00 0.00 35 1017.0
20260905090005 30 283 1.6 8.0 0.00 0.00 0.00 35 1016.9
20260905084502 29 90 0.0 8.0 0.00 0.00 0.00 36 1016.7
20260905083058 28 103 3.2 8.0 0.00 0.00 0.00 35 1016.8
20260905081557 28 39 1.6 8.0 0.00 0.00 0.00 36 1016.9